Flag for Grenada Weather past 2 weeks in Saint George's, Grenada

Now
81 °F

Passing clouds.


Feels Like: 86 °F
Forecast: 76 / 81 °F
Wind: 13 mph from East

Location: Point Salines Airport

Current Time: Aug 4, 2015 at 8:10:44 PM

Latest Report: Aug 4, 2015 at 7:00 PM


Visibility: N/A

Pressure: 29.95 "Hg

Humidity: 84%

Dew point: 75 °F

Location of Saint George'sLocation

Historic Weather in Saint George's — Graph

°F

Saint George's temperature yesterday

Maximum temperature yesterday: 86 °F (at 2:00 PM)
Minimum temperature yesterday: 79 °F (at 4:00 AM)
Average temperature yesterday: 82 °F

Past Weeks' High & Low Weather Summary

 TemperatureHumidityPressure
High88 °F (Jul 22, 12:02 PM)100% (Jul 21, 12:00 PM)30.04 "Hg (Jul 21, 12:00 PM)
Low77 °F (Jul 21, 2:00 PM)66% (Aug 1, 11:00 AM)29.86 "Hg (Aug 2, 3:00 PM)
Average82 °F84%29.95 "Hg
* Reported Jul 20 6:00 PM — Aug 4 6:00 PM, Saint George's, Weather by CustomWeather, © 2015

Note: Actual official high and low records may vary slightly from our data, if they occured in-between our weather recording intervals... More about our weather records

Advertising

Saint George's weather history for previous 24 hours

 ConditionsComfort  
Time TempWeatherWind HumidityBarometerVisibility
6:00 PM
Tue, Aug 4
81 °FPassing clouds.14 mph89%29.92 "HgN/A
5:00 PM81 °FPassing clouds.10 mph89%29.92 "HgN/A
4:00 PM82 °FScattered clouds.17 mph89%29.92 "HgN/A
3:00 PM81 °FScattered clouds.13 mph94%29.95 "HgN/A
2:00 PM81 °FSprinkles. Partly sunny.14 mph89%29.95 "Hg5 mi
1:00 PM84 °FSprinkles. Scattered clouds.14 mph79%29.98 "Hg6 mi
12:00 PM86 °FPartly sunny.18 mph75%29.98 "HgN/A
11:00 AM84 °FPartly sunny.14 mph79%29.98 "HgN/A
10:00 AM86 °FScattered clouds.20 mph84%29.98 "HgN/A
9:00 AM82 °FScattered clouds.16 mph89%29.98 "HgN/A
8:00 AM82 °FSprinkles. Partly sunny.15 mph84%29.98 "Hg6 mi
7:00 AM82 °FScattered clouds.12 mph84%29.95 "HgN/A
6:00 AM81 °FScattered clouds.12 mph89%29.95 "Hg6 mi
5:00 AM81 °FPassing clouds.14 mph89%29.92 "HgN/A
4:00 AM81 °FPassing clouds.12 mph84%29.92 "HgN/A
2:00 AM81 °FPassing clouds.12 mph89%29.92 "HgN/A
1:00 AM81 °FPassing clouds.12 mph89%29.95 "HgN/A
12:00 AM81 °FPassing clouds.14 mph89%29.95 "HgN/A
11:00 PM
Mon, Aug 3
81 °FPassing clouds.12 mph89%29.98 "HgN/A
10:00 PM81 °FPassing clouds.12 mph89%29.95 "HgN/A
9:00 PM81 °FPassing clouds.9 mph89%29.95 "HgN/A
8:00 PM81 °FPassing clouds.8 mph89%29.92 "HgN/A
Weather by CustomWeather, © 2015

See weather overviewHow to use our weather pages